Time,TemperatureF,DewpointF,PressureIn,WindDirection,WindDirectionDegrees,WindSpeedMPH,WindSpeedGustMPH,Humidity,HourlyPrecipIn,Conditions,Clouds,dailyrainin,SoftwareType,DateUTC
2014-04-23 00:13:00,47.0,33.0,29.96,NNW,345,1.0,4.0,57,0.00,,,0.00,,2014-04-23 04:13:00,
2014-04-23 00:23:00,47.0,33.0,29.96,NW,314,1.0,5.0,57,0.00,,,0.00,,2014-04-23 04:23:00,
2014-04-23 00:43:00,46.0,32.0,29.96,North,360,1.0,4.0,59,0.00,,,0.00,,2014-04-23 04:43:00,
2014-04-23 00:54:00,46.0,32.0,29.96,North,349,1.0,3.0,59,0.00,,,0.00,,2014-04-23 04:54:00,
2014-04-23 01:13:00,46.0,33.0,29.96,NNW,332,1.0,4.0,60,0.00,,,0.00,,2014-04-23 05:13:00,
2014-04-23 01:23:00,45.0,32.0,29.97,NNW,337,0.0,4.0,61,0.00,,,0.00,,2014-04-23 05:23:00,
2014-04-23 01:43:00,45.0,32.0,29.97,NNW,334,0.0,3.0,61,0.00,,,0.00,,2014-04-23 05:43:00,
2014-04-23 01:52:00,45.0,32.0,29.97,NNW,336,0.0,1.0,61,0.00,,,0.00,,2014-04-23 05:52:00,
2014-04-23 02:12:00,45.0,33.0,29.97,NW,323,0.0,4.0,62,0.00,,,0.00,,2014-04-23 06:12:00,
2014-04-23 02:22:00,45.0,33.0,29.97,NNW,343,0.0,2.0,62,0.00,,,0.00,,2014-04-23 06:22:00,
2014-04-23 02:53:00,44.0,33.0,29.97,NNW,335,0.0,3.0,64,0.00,,,0.00,,2014-04-23 06:53:00,
2014-04-23 03:12:00,44.0,33.0,29.97,NNW,329,1.0,4.0,65,0.00,,,0.00,,2014-04-23 07:12:00,
2014-04-23 03:22:00,43.0,32.0,29.98,NW,323,0.0,3.0,66,0.00,,,0.00,,2014-04-23 07:22:00,
2014-04-23 03:42:00,43.0,33.0,29.97,NW,323,0.0,2.0,67,0.00,,,0.00,,2014-04-23 07:42:00,
2014-04-23 03:52:00,43.0,33.0,29.98,NW,314,1.0,4.0,68,0.00,,,0.00,,2014-04-23 07:52:00,
2014-04-23 04:13:00,43.0,33.0,29.98,NW,307,2.0,5.0,68,0.00,,,0.00,,2014-04-23 08:13:00,
2014-04-23 04:22:00,42.0,32.0,29.97,NW,308,0.0,3.0,68,0.00,,,0.00,,2014-04-23 08:22:00,
2014-04-23 04:43:00,42.0,33.0,29.98,NW,319,0.0,3.0,69,0.00,,,0.00,,2014-04-23 08:43:00,
2014-04-23 04:52:00,41.0,32.0,29.98,NW,320,0.0,1.0,70,0.00,,,0.00,,2014-04-23 08:52:00,
2014-04-23 05:12:00,41.0,32.0,29.98,NW,317,1.0,3.0,71,0.00,,,0.00,,2014-04-23 09:12:00,
2014-04-23 05:22:00,41.0,33.0,29.98,WNW,302,1.0,4.0,72,0.00,,,0.00,,2014-04-23 09:22:00,
2014-04-23 05:43:00,40.0,32.0,29.99,WNW,300,0.0,3.0,73,0.00,,,0.00,,2014-04-23 09:43:00,
2014-04-23 05:54:00,40.0,33.0,30.00,WNW,299,2.0,6.0,75,0.00,,,0.00,,2014-04-23 09:54:00,
2014-04-23 06:12:00,40.0,33.0,30.00,NW,323,3.0,7.0,75,0.00,,,0.00,,2014-04-23 10:12:00,
2014-04-23 06:23:00,40.0,33.0,30.00,NNW,332,1.0,4.0,75,0.00,,,0.00,,2014-04-23 10:23:00,
2014-04-23 06:42:00,39.0,32.0,30.01,NNW,341,4.0,7.0,75,0.00,,,0.00,,2014-04-23 10:42:00,
2014-04-23 06:53:00,39.0,32.0,30.01,NNW,337,3.0,8.0,75,0.00,,,0.00,,2014-04-23 10:53:00,
2014-04-23 07:12:00,39.0,32.0,30.02,NNW,338,3.0,6.0,76,0.00,,,0.00,,2014-04-23 11:12:00,
2014-04-23 07:23:00,39.0,32.0,30.03,NNW,340,2.0,6.0,76,0.00,,,0.00,,2014-04-23 11:23:00,
2014-04-23 07:43:00,39.0,32.0,30.03,NNE,20,3.0,7.0,77,0.00,,,0.00,,2014-04-23 11:43:00,
2014-04-23 07:52:00,39.0,32.0,30.04,NNW,329,1.0,5.0,76,0.00,,,0.00,,2014-04-23 11:52:00,
2014-04-23 08:12:00,39.0,32.0,30.04,NNW,348,2.0,4.0,75,0.00,,,0.00,,2014-04-23 12:12:00,
2014-04-23 08:22:00,40.0,32.0,30.05,NNW,333,4.0,8.0,74,0.00,,,0.00,,2014-04-23 12:22:00,
2014-04-23 08:42:00,40.0,32.0,30.06,North,355,4.0,8.0,73,0.00,,,0.00,,2014-04-23 12:42:00,
2014-04-23 08:52:00,41.0,32.0,30.06,NNW,344,6.0,11.0,71,0.00,,,0.00,,2014-04-23 12:52:00,
2014-04-23 09:12:00,42.0,33.0,30.07,NNW,338,3.0,10.0,70,0.00,,,0.00,,2014-04-23 13:12:00,
2014-04-23 09:22:00,43.0,33.0,30.07,North,350,4.0,8.0,67,0.00,,,0.00,,2014-04-23 13:22:00,
2014-04-23 09:42:00,44.0,33.0,30.07,NW,312,4.0,9.0,66,0.00,,,0.00,,2014-04-23 13:42:00,
2014-04-23 09:52:00,44.0,33.0,30.07,NNW,342,4.0,9.0,65,0.00,,,0.00,,2014-04-23 13:52:00,
2014-04-23 10:12:00,45.0,33.0,30.07,NW,321,4.0,9.0,62,0.00,,,0.00,,2014-04-23 14:12:00,
2014-04-23 10:22:00,44.0,32.0,30.08,NNW,348,4.0,10.0,62,0.00,,,0.00,,2014-04-23 14:22:00,
2014-04-23 10:42:00,45.0,32.0,30.08,NNW,340,6.0,13.0,60,0.00,,,0.00,,2014-04-23 14:42:00,
2014-04-23 10:52:00,47.0,33.0,30.09,NNW,335,4.0,8.0,59,0.00,,,0.00,,2014-04-23 14:52:00,
2014-04-23 11:12:00,46.0,32.0,30.09,NW,314,5.0,10.0,58,0.00,,,0.00,,2014-04-23 15:12:00,
2014-04-23 11:22:00,47.0,33.0,30.09,NW,316,7.0,10.0,57,0.00,,,0.00,,2014-04-23 15:22:00,
2014-04-23 11:43:00,48.0,33.0,30.09,NNW,339,4.0,6.0,55,0.00,,,0.00,,2014-04-23 15:43:00,
2014-04-23 11:54:00,49.0,32.0,30.09,NW,326,5.0,9.0,52,0.00,,,0.00,,2014-04-23 15:54:00,
2014-04-23 12:13:00,49.0,32.0,30.09,WNW,298,5.0,10.0,51,0.00,,,0.00,,2014-04-23 16:13:00,
2014-04-23 12:23:00,50.0,33.0,30.09,North,350,2.0,6.0,51,0.00,,,0.00,,2014-04-23 16:23:00,
2014-04-23 12:43:00,52.0,33.0,30.10,ENE,62,5.0,10.0,48,0.00,,,0.00,,2014-04-23 16:43:00,
2014-04-23 12:53:00,52.0,35.0,30.09,NNW,327,3.0,7.0,53,0.00,,,0.00,,2014-04-23 16:53:00,
2014-04-23 13:13:00,52.0,32.0,30.09,WNW,292,3.0,7.0,46,0.00,,,0.00,,2014-04-23 17:13:00,
2014-04-23 13:24:00,53.0,35.0,30.09,NNW,346,1.0,6.0,51,0.00,,,0.00,,2014-04-23 17:24:00,
2014-04-23 13:43:00,54.0,34.0,30.08,ESE,117,3.0,6.0,46,0.00,,,0.00,,2014-04-23 17:43:00,
2014-04-23 13:52:00,57.0,35.0,30.08,NW,325,2.0,8.0,43,0.00,,,0.00,,2014-04-23 17:52:00,
2014-04-23 14:12:00,56.0,34.0,30.07,NW,323,4.0,7.0,43,0.00,,,0.00,,2014-04-23 18:12:00,
2014-04-23 14:22:00,56.0,34.0,30.06,NNW,344,2.0,6.0,43,0.00,,,0.00,,2014-04-23 18:22:00,
2014-04-23 14:42:00,56.0,33.0,30.06,NW,326,4.0,12.0,41,0.00,,,0.00,,2014-04-23 18:42:00,
2014-04-23 14:52:00,56.0,34.0,30.06,East,88,1.0,9.0,44,0.00,,,0.00,,2014-04-23 18:52:00,
2014-04-23 15:11:00,57.0,34.0,30.06,NW,326,7.0,11.0,41,0.00,,,0.00,,2014-04-23 19:11:00,
2014-04-23 15:22:00,57.0,35.0,30.06,North,5,2.0,12.0,44,0.00,,,0.00,,2014-04-23 19:22:00,
2014-04-23 15:42:00,58.0,37.0,30.06,North,360,3.0,8.0,45,0.00,,,0.00,,2014-04-23 19:42:00,
2014-04-23 15:56:00,59.0,33.0,30.06,East,101,1.0,7.0,38,0.00,,,0.00,,2014-04-23 19:56:00,
2014-04-23 16:12:00,58.0,34.0,30.05,NW,306,6.0,9.0,40,0.00,,,0.00,,2014-04-23 20:12:00,
2014-04-23 16:22:00,59.0,33.0,30.05,WNW,292,5.0,9.0,38,0.00,,,0.00,,2014-04-23 20:22:00,